TimeSAST,TemperatureF,Dew PointF,Humidity,Sea Level PressureIn,VisibilityMPH,Wind Direction,Wind SpeedMPH,Gust SpeedMPH,PrecipitationIn,Events,Conditions,WindDirDegrees,DateUTC
12:00 AM,53.6,44.6,72,30.09,6.2,NNW,5.8,-,N/A,,Overcast,330,2012-10-05 22:00:00
1:00 AM,51.8,44.6,76,30.09,6.2,WNW,4.6,-,N/A,,Overcast,290,2012-10-05 23:00:00
2:00 AM,52,45,68,30.09,19,NW,5.8,,,,,320,2012-10-06 00:00:00
2:00 AM,51.8,44.6,76,30.06,6.2,NW,4.6,-,N/A,,Mostly Cloudy,320,2012-10-06 00:00:00
3:00 AM,51.8,42.8,71,30.06,6.2,WNW,5.8,-,N/A,,Mostly Cloudy,300,2012-10-06 01:00:00
4:00 AM,50.0,42.8,76,30.06,6.2,NW,5.8,-,N/A,,Scattered Clouds,320,2012-10-06 02:00:00
5:00 AM,49,42,70,30.07,19,NW,4.6,,,,Scattered Clouds,320,2012-10-06 03:00:00
5:00 AM,48.2,42.8,82,30.04,6.2,NW,4.6,-,N/A,,Partly Cloudy,320,2012-10-06 03:00:00
6:00 AM,50.0,42.8,76,30.06,6.2,NW,4.6,-,N/A,,Scattered Clouds,310,2012-10-06 04:00:00
7:00 AM,50.0,42.8,76,30.06,6.2,NW,5.8,-,N/A,,Partly Cloudy,310,2012-10-06 05:00:00
8:00 AM,53,44,64,30.09,19,WNW,8.1,,,,Scattered Clouds,300,2012-10-06 06:00:00
8:00 AM,53.6,44.6,72,30.06,6.2,WNW,8.1,-,N/A,,Partly Cloudy,300,2012-10-06 06:00:00
9:00 AM,57.2,44.6,63,30.06,6.2,West,6.9,-,N/A,,Partly Cloudy,280,2012-10-06 07:00:00
10:00 AM,59.0,44.6,59,30.06,6.2,WSW,8.1,-,N/A,,Mostly Cloudy,250,2012-10-06 08:00:00
11:00 AM,59.0,44.6,59,30.06,6.2,SW,6.9,-,N/A,,Mostly Cloudy,230,2012-10-06 09:00:00
12:00 PM,59.0,44.6,59,30.04,6.2,WSW,10.4,-,N/A,,Mostly Cloudy,240,2012-10-06 10:00:00
1:00 PM,60.8,44.6,55,30.06,6.2,SW,10.4,-,N/A,,Mostly Cloudy,230,2012-10-06 11:00:00
2:00 PM,61,44,43,30.05,12,SSW,10.4,,,,Partly Cloudy,200,2012-10-06 12:00:00
2:00 PM,60.8,44.6,55,30.04,6.2,SSW,10.4,-,N/A,,Scattered Clouds,200,2012-10-06 12:00:00
3:00 PM,59.0,44.6,59,30.01,6.2,South,10.4,-,N/A,,Partly Cloudy,190,2012-10-06 13:00:00
4:00 PM,59.0,44.6,59,30.01,6.2,SSW,9.2,-,N/A,,Partly Cloudy,200,2012-10-06 14:00:00
5:00 PM,60.8,44.6,55,30.01,6.2,SSW,9.2,-,N/A,,Partly Cloudy,200,2012-10-06 15:00:00
6:00 PM,59.0,44.6,59,30.04,6.2,SSW,10.4,-,N/A,,Mostly Cloudy,210,2012-10-06 16:00:00
7:00 PM,57.2,46.4,67,30.04,6.2,SW,6.9,-,N/A,,Mostly Cloudy,220,2012-10-06 17:00:00
8:00 PM,56,45,57,30.07,12,WSW,4.6,,,,Mostly Cloudy,250,2012-10-06 18:00:00
8:00 PM,57.2,44.6,63,30.06,6.2,WSW,4.6,-,N/A,,Mostly Cloudy,250,2012-10-06 18:00:00
9:00 PM,55.4,44.6,67,30.06,6.2,WNW,5.8,-,N/A,,Overcast,300,2012-10-06 19:00:00
10:00 PM,55.4,44.6,67,30.06,6.2,NW,6.9,-,N/A,,Mostly Cloudy,320,2012-10-06 20:00:00
11:00 PM,55.4,44.6,67,30.06,6.2,NNW,5.8,-,N/A,,Mostly Cloudy,340,2012-10-06 21:00:00